Theta_e
324 323 323 323 323 324 323 322 321 320 323 322 319 317 320 323 317 315 324 327 322 324 329 329 329 330 329 329 330 331 335 339 340 344 349 346 343 348 353 357 361 362 362 363 361 360 360 357 357 357 355 355 355 355 355 355 355 355 356 358 359 359 361 363 363 364 365 365 364 364 363 363 363 363 362 362 362 362 362 362 362 361 360 360 363 364 364
321 322 322 323 322 322 322 323 323 323 323 322 321 322 324 323 321 322 327 328 327 330 330 328 329 329 329 329 331 331 331 334 338 339 340 338 337 340 346 353 358 361 363 364 363 361 360 358 357 357 356 355 355 355 355 355 355 354 355 358 359 359 361 363 363 364 365 365 365 365 364 363 364 363 362 362 362 362 362 362 362 362 361 361 361 363 364
319 320 322 322 322 322 321 321 324 324 323 323 322 323 324 323 322 324 326 326 327 331 331 330 330 330 330 330 330 330 329 330 334 334 333 333 334 336 341 347 352 357 360 363 364 362 360 359 359 358 357 357 355 354 354 355 354 354 355 358 360 360 362 363 363 365 366 365 365 366 364 364 365 364 363 363 363 363 363 363 363 363 362 362 361 362 364
318 319 321 320 320 321 319 318 322 323 321 321 322 323 325 322 322 323 322 319 324 330 331 330 330 329 330 330 330 330 330 329 330 330 332 334 336 340 345 348 351 354 357 361 363 362 359 359 360 358 358 358 356 354 354 354 354 354 354 358 361 361 363 364 365 366 366 366 366 366 365 365 364 365 364 364 363 364 364 364 364 363 363 363 362 361 362
318 319 319 319 319 319 317 318 322 323 323 323 323 323 326 325 324 322 319 321 327 331 330 330 331 329 329 330 330 330 331 332 331 331 333 335 334 340 350 355 355 353 352 354 358 359 358 357 357 358 357 358 356 355 354 354 354 353 354 357 361 364 363 364 365 365 366 367 366 366 366 365 364 365 365 364 364 364 364 364 364 364 363 363 363 362 362
319 319 319 319 318 317 319 322 324 324 324 324 323 323 324 325 326 325 324 327 330 330 329 330 331 331 331 331 330 330 331 333 332 331 331 332 332 340 351 356 355 354 355 354 354 356 357 355 354 355 356 356 356 355 353 353 354 354 354 357 361 364 364 364 365 366 366 367 366 366 366 365 365 366 365 365 365 363 364 364 364 365 364 364 364 364 363
318 318 319 320 318 319 322 324 326 326 324 324 324 325 326 325 325 326 326 327 328 329 330 330 331 332 331 328 329 330 330 332 334 333 331 333 337 346 355 360 362 364 364 361 356 355 354 353 352 352 354 354 355 355 354 353 354 355 355 357 361 364 364 364 365 366 366 366 365 365 366 365 365 365 365 365 365 363 363 364 365 365 365 364 364 364 364
317 318 319 319 320 321 322 325 328 328 328 329 326 322 324 325 325 326 327 327 327 327 328 328 329 330 328 329 334 336 336 338 341 336 331 335 344 353 360 365 367 369 368 366 363 359 355 353 351 351 352 353 352 354 354 353 355 356 356 358 360 364 365 364 364 365 365 364 364 365 365 365 365 365 365 365 365 364 363 363 364 365 365 365 365 364 365
317 317 317 318 320 320 320 326 334 334 334 339 335 328 327 328 326 325 326 327 327 327 327 327 327 328 330 333 336 335 337 343 345 340 338 347 355 359 361 362 365 366 366 367 367 363 357 353 351 350 351 352 352 354 354 354 355 356 358 360 361 363 365 364 363 363 363 364 364 364 365 365 365 365 365 365 365 365 364 363 364 365 365 365 365 364 365
316 316 317 319 319 318 321 329 337 337 334 339 342 334 330 331 332 330 329 328 327 326 327 327 326 328 332 336 335 331 334 342 345 344 347 352 356 357 359 360 362 364 365 366 366 364 359 353 351 350 350 352 353 354 354 354 356 356 357 360 362 363 364 363 361 363 363 364 365 365 364 365 365 365 365 365 365 365 364 364 363 363 364 365 365 365 365
314 315 317 319 318 320 328 335 335 332 330 337 340 327 323 335 345 341 340 338 333 329 330 328 327 331 334 333 330 328 332 342 346 349 353 354 354 356 359 359 360 363 365 364 362 360 357 354 352 351 350 351 352 354 354 354 354 356 357 359 362 363 362 361 361 363 363 364 365 365 365 365 364 364 365 364 365 365 364 364 363 363 363 364 365 365 364
314 314 315 317 316 320 329 334 332 328 329 337 334 320 321 339 347 343 345 347 344 345 346 340 333 334 334 331 331 336 342 349 353 356 357 357 356 356 359 359 360 362 364 364 361 358 358 358 355 351 352 352 352 354 355 354 354 356 358 359 362 362 362 361 362 362 363 364 365 364 365 365 365 364 365 364 364 364 364 364 363 363 363 363 365 365 365
313 313 313 314 315 319 323 325 327 329 328 328 325 321 329 343 344 342 346 346 347 352 354 349 343 338 334 338 347 353 354 354 356 356 356 356 356 356 358 359 359 360 361 363 363 362 363 362 358 354 353 353 354 356 357 356 355 357 359 361 363 363 362 361 361 362 363 364 365 364 364 365 365 364 364 364 364 364 364 364 364 364 364 363 363 365 364
313 313 313 312 313 317 319 319 323 328 324 322 326 333 340 341 340 342 346 345 347 351 352 351 349 344 341 346 352 354 354 355 356 355 354 355 356 356 356 356 357 359 361 361 361 361 361 360 358 357 356 355 356 358 359 358 357 358 361 363 364 364 363 361 361 363 364 364 365 364 363 364 365 365 365 365 364 365 365 365 365 365 365 364 363 364 364
314 314 313 313 314 316 316 317 322 326 325 328 336 340 337 334 338 344 345 346 348 348 349 350 349 345 347 353 354 354 355 356 356 355 355 356 356 356 357 355 356 358 360 360 360 360 361 362 360 358 359 360 361 363 365 364 362 361 363 363 362 362 362 362 361 362 363 363 364 363 362 363 364 366 366 365 365 365 366 366 365 364 364 364 364 363 363
315 314 314 315 320 323 321 319 321 323 329 337 341 337 334 336 341 344 345 347 347 346 348 350 349 347 351 354 355 355 355 354 353 353 354 355 355 356 357 356 356 357 358 358 358 358 360 364 363 362 364 366 367 367 367 366 364 362 361 362 362 362 361 361 361 361 361 362 362 362 362 363 364 366 366 366 366 366 366 365 365 364 363 363 363 363 362
318 317 317 319 324 325 324 324 322 322 330 337 338 336 337 340 342 343 344 345 345 345 346 347 349 350 352 353 353 353 353 352 353 353 353 354 355 356 356 356 357 357 357 357 357 356 358 360 362 364 364 364 365 364 364 364 364 363 361 361 361 361 361 362 362 361 361 361 363 363 363 364 365 366 367 366 366 365 365 364 364 363 363 363 363 363 362
318 319 320 320 322 322 323 326 326 326 330 334 335 337 340 341 341 341 342 343 344 345 345 347 349 350 349 351 352 352 351 351 351 352 353 353 354 355 355 356 357 356 357 356 357 357 356 356 357 359 359 360 361 362 362 363 364 365 364 362 361 361 361 362 362 362 362 362 363 364 364 365 365 365 365 365 364 364 363 363 363 363 363 362 362 362 363
318 319 320 319 320 323 324 326 328 330 331 332 334 338 340 340 340 339 340 342 344 343 344 346 348 348 347 349 350 350 350 350 350 351 351 351 353 354 354 354 355 356 356 356 356 356 355 355 355 355 355 357 358 359 360 363 364 366 367 366 365 364 363 362 362 361 361 361 362 363 363 364 364 363 363 364 364 364 364 363 364 364 363 363 363 362 362
317 318 319 319 320 322 322 323 327 332 333 333 334 337 338 338 338 339 340 341 342 342 344 345 346 347 347 347 348 349 349 350 350 350 350 350 352 352 353 353 354 354 355 355 354 354 353 353 352 352 353 353 354 356 358 360 362 365 366 366 366 366 366 365 364 363 363 361 361 362 362 362 362 361 361 361 362 362 363 363 364 364 364 364 363 363 363
315 316 317 317 318 319 320 322 326 332 334 334 334 336 336 337 338 339 339 339 339 341 342 343 345 346 346 348 348 348 349 350 349 349 349 349 350 351 351 352 352 352 352 353 352 351 351 350 350 350 350 350 351 353 354 355 357 360 360 361 362 363 362 363 362 363 363 362 361 363 363 362 363 363 363 362 363 363 363 363 364 363 362 363 363 364 363
314 315 316 317 318 320 323 326 330 333 334 334 335 336 336 336 337 338 338 338 338 339 341 342 344 345 346 347 347 347 348 348 348 348 348 348 350 350 350 350 350 350 350 350 350 350 349 349 348 348 348 348 349 350 351 352 353 354 355 356 356 355 355 355 356 357 358 358 358 360 360 359 360 358 355 353 354 356 357 357 357 357 357 356 356 355 354
315 315 317 319 321 324 326 328 330 331 333 335 336 337 336 335 335 335 337 338 338 338 338 340 343 345 346 346 345 346 347 346 346 347 347 347 348 349 349 349 349 349 349 349 349 348 348 348 348 347 347 347 348 348 349 350 350 351 352 353 352 351 350 350 350 352 352 352 353 353 352 352 352 351 348 343 340 339 339 339 339 341 342 341 341 340 339
314 315 316 317 320 323 324 325 326 328 331 335 337 336 335 335 334 334 335 336 337 336 336 337 339 343 345 344 344 345 345 345 345 346 346 347 347 348 348 348 348 348 347 347 347 347 347 347 348 347 347 347 347 348 348 349 349 349 350 351 350 349 348 347 348 348 349 349 349 349 348 348 348 348 348 346 343 340 337 335 334 334 333 333 333 333 332
314 315 315 316 318 320 322 322 324 326 331 334 335 334 334 334 333 333 334 334 334 336 336 335 335 338 340 341 342 342 343 342 343 344 344 345 346 346 347 347 346 346 346 345 345 346 346 347 347 347 347 347 347 347 348 349 349 349 349 348 348 347 346 346 346 347 348 349 349 348 347 347 347 347 346 344 344 344 342 340 339 336 334 332 332 332 332
314 315 316 317 319 320 322 323 325 328 331 333 333 333 333 332 332 333 334 334 334 335 336 335 334 336 338 339 340 342 342 342 343 344 345 344 345 345 345 345 346 346 345 345 345 345 345 345 346 347 347 346 346 346 346 346 347 347 346 346 346 346 346 346 345 345 347 348 347 347 346 346 346 347 346 345 345 345 344 344 344 342 338 335 333 332 332
314 315 316 318 320 322 322 324 327 329 331 331 331 331 331 330 331 332 333 333 334 335 335 335 335 335 337 338 340 341 342 343 343 344 345 345 345 344 344 345 345 345 345 345 345 345 345 345 345 346 347 347 347 346 346 345 345 346 346 346 345 345 345 344 344 344 345 345 345 345 345 346 345 345 344 345 345 345 345 344 344 343 341 338 334 332 332
314 315 317 319 322 323 323 325 328 329 330 331 330 330 330 330 330 330 331 331 332 332 333 335 336 336 337 339 339 338 339 341 341 342 343 344 345 345 345 346 345 345 344 344 344 344 343 343 342 344 346 346 347 346 346 345 345 346 346 346 345 345 344 343 343 343 343 343 343 343 343 344 344 344 344 344 343 344 344 343 342 340 340 338 335 334 333
315 317 318 320 321 323 325 327 328 329 329 329 329 329 329 329 329 329 330 331 331 331 332 333 335 337 338 339 339 338 338 339 340 340 341 342 343 344 345 345 344 344 344 343 343 343 342 342 342 342 342 343 344 345 344 344 344 344 344 345 345 344 344 344 343 343 343 343 343 342 342 342 342 343 343 342 341 341 341 340 339 338 337 336 335 334 334
319 320 322 322 323 324 327 328 328 328 328 327 326 326 326 327 328 328 329 329 330 330 331 332 334 336 336 337 338 338 337 338 340 340 340 341 341 342 343 343 342 343 343 343 343 343 342 342 343 342 342 342 343 343 343 343 343 343 343 344 343 343 343 343 344 344 344 343 343 343 343 342 342 342 342 341 341 340 339 337 336 336 335 335 335 333 333
323 324 325 326 326 327 328 328 328 328 327 326 325 325 326 327 328 328 329 329 329 329 331 331 332 333 333 334 336 336 336 337 338 338 338 338 339 339 340 340 340 340 342 343 343 343 343 343 343 343 343 342 342 343 343 343 343 343 343 343 342 341 341 342 342 342 342 342 343 343 342 342 341 341 341 341 340 340 338 336 335 335 334 334 333 332 331
326 326 327 327 327 327 327 328 328 329 328 327 327 328 328 329 329 329 330 330 330 330 330 331 331 332 332 333 334 334 335 335 336 336 336 336 336 337 338 338 338 338 339 340 341 342 342 342 342 342 342 341 340 341 341 342 342 342 341 340 340 340 340 341 341 341 341 341 341 342 341 341 340 340 340 340 340 340 339 336 335 335 335 333 332 332 330
328 328 329 328 327 328 328 328 328 328 328 328 328 328 329 330 330 330 330 330 330 330 330 331 331 331 332 333 333 333 333 333 333 334 334 334 335 335 335 335 336 336 336 337 338 339 340 341 341 341 341 341 341 340 340 340 341 341 340 340 339 338 339 339 340 340 340 339 339 341 341 340 340 339 339 339 339 339 338 336 335 335 335 333 332 332 330
330 331 329 328 328 329 329 329 328 328 328 327 327 329 330 330 330 329 329 329 329 328 329 330 330 330 330 331 331 332 332 331 332 333 334 334 334 334 334 334 334 335 335 335 336 337 338 339 340 339 339 340 340 341 341 340 340 341 341 341 340 339 339 338 338 340 339 338 338 339 340 339 339 338 338 338 338 338 337 336 335 335 334 333 332 332 331
330 329 328 328 328 328 328 328 328 328 327 327 328 329 330 330 329 328 328 327 327 327 328 328 328 329 329 329 330 330 330 330 331 332 332 332 332 332 332 333 333 333 334 334 334 336 337 337 337 338 338 338 338 339 340 340 340 340 340 340 340 340 340 339 338 338 339 338 337 338 337 338 338 337 337 337 337 338 337 336 334 333 334 334 334 333 332
328 329 329 329 329 329 328 328 328 328 328 329 329 329 329 328 328 327 327 326 326 326 326 327 327 328 328 328 328 328 328 329 329 330 330 330 330 330 330 331 331 332 332 332 332 333 334 334 335 336 336 336 337 337 337 338 338 339 339 339 339 339 339 339 339 338 338 338 337 336 336 337 337 336 336 336 336 337 337 336 334 333 334 334 334 335 334
327 328 328 328 328 328 328 328 328 328 328 328 328 327 327 327 327 327 326 325 325 325 325 326 327 328 328 327 326 326 326 327 328 328 328 327 327 328 328 329 329 330 330 331 331 332 332 332 333 333 334 334 335 335 335 335 336 337 337 337 338 338 337 338 338 337 337 337 337 336 336 336 336 335 335 334 335 335 335 335 335 335 334 334 334 334 335
323 324 324 324 324 324 324 325 325 325 325 325 324 325 325 325 325 325 325 325 325 325 324 325 325 326 326 325 325 325 325 325 325 326 326 326 326 326 327 327 328 328 329 329 329 330 330 331 331 332 332 332 333 333 333 333 334 335 335 335 336 336 335 335 335 335 335 335 335 335 335 335 335 335 334 333 334 334 334 334 334 334 334 335 334 334 334
319 319 320 320 320 320 321 321 321 321 322 322 323 323 323 323 323 324 324 325 325 324 324 323 323 323 324 324 324 324 324 324 324 324 324 325 325 326 326 326 326 327 327 326 326 327 328 329 329 330 330 330 331 331 331 331 332 332 333 333 333 333 333 333 332 332 332 332 332 333 333 332 333 333 333 333 333 333 333 334 334 334 334 334 333 332 332
318 318 318 317 318 318 318 319 319 319 320 320 320 321 321 320 321 321 322 323 323 323 322 322 322 322 323 323 323 323 323 323 323 322 322 323 323 324 324 325 325 324 325 325 324 324 325 327 327 328 328 328 329 329 329 330 330 330 331 330 331 330 330 330 330 330 330 330 330 331 331 331 331 330 331 331 331 331 331 332 332 333 334 334 332 329 329
318 318 317 317 317 317 317 317 317 317 318 318 319 318 318 318 318 319 320 320 319 320 320 321 321 322 322 322 322 321 321 321 321 322 321 321 321 321 322 323 323 323 323 323 323 323 323 324 325 326 326 326 326 326 327 328 328 328 328 328 328 328 328 328 328 328 328 328 328 329 329 329 329 328 328 328 327 327 328 328 329 329 331 331 331 329 329
317 317 317 316 316 316 316 316 316 315 315 316 316 316 316 316 316 317 317 317 317 317 318 318 319 320 320 320 320 320 320 319 319 320 320 320 320 320 321 321 322 321 321 321 321 322 322 322 322 323 323 324 323 323 324 324 324 324 324 324 324 324 324 324 325 325 326 326 327 327 327 327 327 327 326 326 325 325 325 326 326 326 326 326 327 327 328
315 315 315 315 315 315 314 314 314 314 314 314 314 314 314 314 315 315 315 315 316 316 316 316 316 317 317 318 319 319 319 318 317 317 318 318 318 319 319 320 320 319 319 319 319 320 320 320 320 319 320 321 321 321 322 322 322 322 322 321 321 321 321 321 321 322 322 323 323 323 324 324 324 324 324 324 324 323 322 322 322 322 322 323 323 324 324
315 314 314 314 314 313 313 313 313 313 313 312 312 312 312 312 313 314 314 314 314 314 314 315 315 315 315 316 316 317 318 318 317 316 316 316 316 317 317 318 317 317 316 316 316 317 317 316 316 316 316 317 318 319 320 320 320 320 320 320 319 319 319 319 319 319 319 319 319 319 319 319 319 320 320 320 320 319 318 317 317 317 318 319 320 320 320
315 315 314 314 314 314 313 313 313 312 312 311 311 310 311 311 311 311 312 312 312 312 313 313 314 314 314 315 315 315 316 316 317 316 316 316 316 315 315 315 315 315 314 313 313 313 313 312 312 312 313 314 315 316 317 317 317 317 317 317 317 317 317 317 317 317 317 317 316 316 316 315 315 315 315 315 315 315 314 313 313 313 313 314 315 315 315
315 315 314 314 313 313 313 312 312 311 311 311 310 310 310 310 310 310 311 311 311 311 312 312 313 313 314 314 314 314 313 314 315 315 315 315 315 315 314 312 312 312 312 311 311 311 311 309 309 309 310 311 312 313 313 313 314 314 314 315 315 315 315 315 315 315 315 315 315 314 314 313 312 312 311 311 311 311 311 310 310 310 310 310 311 311 311
315 315 315 315 314 313 313 312 312 311 311 311 310 310 310 310 310 310 311 311 311 311 311 311 311 312 312 313 313 313 313 312 313 313 313 313 314 314 314 313 311 309 309 309 309 308 308 307 307 307 308 308 309 310 310 309 310 310 310 311 312 312 312 312 312 313 313 313 313 313 312 312 311 310 309 308 308 308 307 307 307 307 307 307 308 308 309
316 315 315 315 314 314 313 313 313 312 312 311 310 310 310 311 311 311 311 310 310 309 309 309 309 310 310 311 312 312 312 312 312 312 312 312 312 312 313 313 312 310 308 307 307 306 305 305 305 307 307 307 308 308 308 308 308 307 307 307 308 308 309 309 309 309 309 310 310 310 311 311 310 309 308 307 307 306 305 305 304 304 304 304 305 305 305
316 315 315 315 314 314 313 313 313 313 312 312 311 311 310 310 310 310 310 310 310 309 309 309 309 309 309 310 310 311 311 311 312 312 311 311 311 311 311 311 311 311 310 309 308 307 306 306 306 306 307 307 307 307 307 307 307 307 306 305 305 305 306 306 306 306 306 306 306 307 307 307 307 308 307 307 306 305 304 303 302 301 301 302 302 302 302
315 314 314 314 313 313 313 312 312 311 311 310 310 309 309 309 309 309 309 309 309 309 308 308 308 308 308 308 309 309 310 310 310 310 310 310 310 310 309 309 309 310 310 310 309 308 308 307 307 307 306 306 307 306 306 306 306 306 305 305 305 304 304 304 304 304 304 304 304 304 304 304 304 304 305 305 304 304 303 302 301 300 300 300 300 299 299
313 313 312 311 311 311 311 311 310 310 310 309 308 308 307 307 307 307 306 307 307 307 307 307 307 307 307 307 307 308 308 308 309 309 309 309 309 309 308 308 308 308 308 308 308 308 307 307 307 307 306 306 305 305 306 305 305 304 304 304 305 305 304 304 304 304 304 303 303 303 303 303 303 303 302 302 302 302 301 301 301 300 299 298 298 297 296
311 311 311 310 309 308 308 308 307 307 307 307 307 307 306 306 305 305 304 305 305 305 305 305 305 305 305 306 306 306 307 307 307 307 307 307 307 308 308 308 308 308 307 307 307 307 307 306 306 306 306 305 305 304 304 305 305 304 304 304 303 304 304 304 304 304 304 303 303 303 303 303 303 303 302 302 302 301 301 301 301 300 299 299 298 297 296
Wind_Speed
7 6 7 5 4 4 6 10 16 19 21 23 22 20 18 15 12 9 8 13 16 14 11 9 7 6 6 7 6 4 2 1 1 1 3 6 6 6 7 7 8 10 11 11 13 14 16 19 23 25 26 27 28 28 29 30 31 32 31 32 33 33 32 32 33 33 33 33 33 33 32 31 32 32 31 31 31 30 29 28 28 29 29 29 27 26 28
8 7 8 7 6 6 7 9 12 14 18 22 22 21 21 21 17 14 12 13 14 13 13 12 10 8 7 7 7 8 7 4 1 2 4 5 5 5 6 8 8 10 10 11 12 14 15 17 21 24 25 27 29 29 28 29 31 31 31 32 33 33 32 32 32 31 32 31 30 31 32 31 31 32 31 30 30 30 30 29 28 28 28 29 28 27 28
7 8 9 9 9 9 9 11 13 14 16 18 18 19 19 20 19 19 18 16 13 11 11 13 13 11 11 11 11 13 13 11 9 7 7 7 6 4 4 6 7 8 9 9 11 14 15 17 21 23 24 26 28 29 28 29 30 31 30 30 32 33 32 31 30 31 31 30 30 30 32 32 31 31 31 30 30 30 30 29 29 28 28 29 29 28 27
7 8 9 10 10 10 13 15 16 17 17 17 15 15 16 16 17 19 19 16 11 9 10 12 13 13 13 13 13 13 14 16 16 14 11 10 8 4 3 5 5 7 8 9 11 14 15 18 21 24 24 24 26 28 29 29 30 30 30 29 30 31 30 29 30 31 30 29 30 30 31 32 31 30 31 30 29 29 29 29 29 29 29 29 30 30 28
5 6 7 8 7 9 14 15 17 18 18 16 16 16 17 17 15 14 13 11 9 9 11 12 13 14 14 13 12 13 13 14 16 16 15 14 12 7 4 5 6 7 7 7 10 12 13 17 22 24 24 24 26 28 28 26 26 28 30 29 28 27 28 28 29 30 29 29 30 30 31 32 30 30 30 30 30 30 29 29 29 30 30 30 30 30 30
5 4 3 5 8 11 9 7 13 19 20 20 20 18 18 18 16 13 11 9 9 10 11 11 12 12 13 13 13 13 13 13 15 17 17 17 15 11 5 3 4 5 5 5 7 9 12 17 20 22 25 26 26 26 27 25 25 28 29 28 25 25 27 28 28 28 29 30 30 30 30 30 29 30 30 30 30 30 29 29 29 29 30 30 30 30 31
5 4 4 7 10 7 1 1 4 10 15 19 21 20 19 19 17 16 16 14 13 11 10 10 10 11 13 14 15 16 15 13 13 15 17 16 14 11 6 4 4 3 4 5 6 8 10 14 17 20 23 25 24 24 27 28 28 28 28 27 25 24 26 28 28 28 29 30 29 28 28 28 29 30 30 30 30 30 29 28 29 29 29 30 30 30 30
5 5 6 9 5 3 2 3 2 3 7 10 13 18 20 19 18 17 16 16 16 14 12 11 10 12 13 13 12 12 13 11 11 14 15 13 11 8 4 3 3 3 5 6 7 7 8 11 15 17 19 22 22 23 26 28 28 28 27 26 25 24 26 28 29 29 30 29 28 27 27 28 29 30 30 30 30 29 29 28 28 28 28 30 30 30 30
6 6 8 9 6 5 6 6 2 2 2 1 2 8 11 13 16 17 17 17 18 16 15 14 13 12 11 10 10 11 13 12 11 12 11 7 5 4 3 3 4 5 7 8 8 8 8 10 13 15 17 20 22 22 24 26 26 26 26 25 25 26 27 29 30 29 28 27 27 27 26 27 29 30 30 30 29 28 29 28 28 28 28 28 29 29 30
6 7 7 8 9 9 8 6 6 6 4 3 1 3 6 7 8 10 13 16 18 17 16 16 15 12 10 10 9 10 13 14 12 11 8 5 3 3 3 4 5 6 8 9 9 9 9 10 12 13 15 19 21 21 23 24 24 25 26 26 27 27 26 27 26 25 25 25 25 26 27 28 29 29 29 28 27 27 28 28 29 28 27 26 26 28 29
8 8 8 8 9 6 4 7 7 5 4 4 2 5 6 2 3 6 6 8 11 13 13 14 14 11 9 10 10 10 12 12 11 9 6 4 3 1 2 4 5 6 7 8 8 8 9 10 11 13 15 17 20 20 21 22 22 23 25 25 25 24 22 22 23 23 24 25 25 25 27 28 27 26 25 25 24 25 26 26 27 27 25 25 25 26 27
9 10 9 7 7 5 3 5 5 3 4 1 4 7 4 3 7 8 7 7 8 8 9 10 11 11 10 10 7 5 7 9 7 6 5 4 2 1 2 3 3 4 4 4 3 5 6 6 9 12 15 16 17 18 18 20 20 21 21 20 20 20 21 22 23 23 23 24 25 25 25 25 24 23 23 23 24 24 25 25 25 25 25 25 25 24 25
11 12 10 8 7 7 7 5 1 3 4 4 7 5 1 4 6 7 6 8 9 8 9 8 6 8 9 7 0 5 8 9 7 6 5 4 2 0 1 2 2 2 1 1 1 2 2 2 5 9 13 14 14 15 15 17 17 16 16 16 16 18 20 21 21 21 21 23 24 25 24 23 23 23 23 23 23 24 23 23 23 23 24 24 25 25 25
10 10 10 10 8 6 9 11 6 2 4 5 3 1 1 3 6 6 6 8 8 7 8 7 7 8 7 3 4 7 7 7 7 6 5 5 3 2 1 0 1 1 2 3 3 4 3 3 4 7 10 11 12 12 12 13 13 13 12 13 15 16 18 19 20 20 20 21 21 22 23 22 21 21 21 22 22 22 22 22 22 23 24 24 26 25 25
9 9 10 10 7 5 8 11 9 6 5 3 4 5 7 8 8 6 5 5 6 7 8 8 9 11 8 2 4 7 7 7 7 6 5 5 4 4 3 3 2 2 3 5 6 6 6 5 5 7 9 10 11 10 9 8 8 9 9 11 12 14 15 17 18 18 18 18 18 19 20 21 20 20 20 21 21 21 21 20 21 23 25 25 26 26 26
8 9 10 6 3 3 5 8 10 8 3 3 5 7 9 10 9 7 5 5 6 7 9 10 10 10 6 1 4 6 7 7 7 6 5 5 5 4 4 4 4 5 5 7 8 8 8 9 9 8 9 10 10 10 9 7 6 7 8 9 11 12 12 14 16 16 16 17 18 18 19 19 20 19 19 19 19 20 21 21 22 24 25 25 25 27 28
7 8 7 6 8 9 8 8 10 10 4 1 2 5 7 7 7 7 7 7 8 8 9 10 10 8 6 4 5 6 7 7 7 7 6 6 6 6 6 5 5 7 9 10 11 11 11 12 12 12 12 12 12 10 8 6 5 6 7 8 9 10 11 13 14 15 15 16 16 16 17 18 19 19 19 19 20 20 21 22 22 24 24 24 25 26 27
10 10 12 13 12 12 12 12 12 10 6 3 3 4 5 5 6 6 7 8 9 9 8 8 8 7 6 5 5 6 7 7 7 7 6 6 6 7 7 6 6 8 11 12 13 15 14 13 14 15 14 14 13 10 7 6 5 5 6 6 7 8 9 10 11 12 13 14 14 15 15 16 16 17 18 18 20 21 21 22 22 23 23 23 24 25 25
9 8 10 13 14 12 13 14 14 12 9 6 5 4 5 5 6 7 7 8 8 7 6 7 7 7 7 7 6 6 6 7 7 7 6 6 5 6 6 6 6 7 10 11 12 14 15 15 15 15 14 14 13 11 9 8 7 7 7 8 8 8 8 8 8 10 10 10 10 11 12 13 14 15 16 17 18 19 19 20 21 22 22 22 23 24 25
10 9 11 15 17 17 16 14 12 11 10 8 6 5 5 5 5 6 6 5 5 5 4 5 6 6 7 7 6 6 6 6 7 7 6 5 5 5 6 6 6 7 8 10 11 13 14 14 14 15 14 13 12 11 10 9 9 9 9 9 9 9 8 8 7 8 8 6 6 8 10 11 11 12 13 14 15 16 18 19 18 19 20 21 23 24 25
11 12 14 15 16 17 18 15 13 11 11 9 8 7 7 5 5 5 4 1 1 1 2 3 4 5 6 5 5 6 6 6 6 6 7 6 6 6 7 7 7 8 9 11 12 13 14 15 14 14 13 12 11 11 10 10 10 11 11 10 10 10 9 9 8 7 7 6 5 5 5 5 4 4 6 8 9 10 12 13 14 14 15 17 19 22 22
11 11 12 12 11 12 12 10 11 11 10 10 11 9 7 5 4 4 4 2 3 2 1 2 6 7 5 5 6 7 6 6 7 7 7 7 6 7 9 9 10 10 11 12 14 14 15 15 15 14 13 12 11 11 10 10 11 12 12 12 11 10 10 10 9 8 7 6 5 4 3 3 2 1 3 6 7 8 9 12 14 16 18 21 24 25 27
12 12 12 10 9 9 9 9 11 11 10 11 12 9 7 6 5 4 4 4 5 5 5 3 2 7 7 7 8 9 8 8 9 9 9 9 8 10 11 12 13 13 14 15 16 16 16 16 17 16 15 14 13 13 12 11 12 12 11 11 11 12 12 12 11 10 10 9 8 7 6 5 4 3 3 1 1 2 4 6 8 12 15 18 20 20 22
16 16 15 12 10 11 12 11 11 11 12 12 11 8 7 7 7 7 6 5 6 7 7 7 5 4 6 7 9 10 10 9 10 10 10 11 12 12 14 15 15 15 15 16 17 17 16 17 18 18 18 17 16 16 15 14 14 14 13 13 13 14 13 13 12 12 11 10 9 8 7 6 4 3 3 3 4 4 5 7 7 6 6 7 9 11 12
16 16 14 12 12 13 13 12 11 12 13 11 8 7 7 7 8 9 8 8 7 8 9 9 8 7 7 7 9 10 11 11 12 12 12 13 13 13 15 16 17 16 16 17 18 18 18 18 19 20 20 19 18 17 17 17 18 18 17 16 16 15 14 13 12 11 10 9 8 7 6 5 4 4 3 3 3 4 6 8 10 11 11 10 10 10 11
17 16 14 13 13 13 11 10 10 11 12 10 7 7 7 7 10 10 9 9 9 9 11 11 10 10 8 7 8 11 12 13 14 15 15 14 13 13 15 17 17 17 18 19 19 19 19 20 20 20 20 19 18 17 17 18 19 19 19 18 17 16 14 13 12 10 9 8 7 6 6 5 4 4 4 4 4 4 4 6 7 9 11 13 13 15 17
16 15 13 13 13 13 11 10 9 9 10 10 9 8 8 8 11 10 9 8 9 10 11 11 11 11 9 9 10 11 12 13 14 14 14 14 15 16 17 18 18 18 19 19 19 18 19 19 20 20 20 19 18 17 17 18 18 18 17 16 16 15 14 13 12 10 9 8 7 7 6 6 5 5 5 5 4 4 5 6 6 8 9 11 13 17 20
14 13 13 13 12 11 10 10 9 8 8 9 9 10 10 10 11 10 9 9 10 10 9 10 13 12 11 12 13 13 12 13 13 13 13 14 16 18 18 18 18 18 18 18 18 18 18 19 19 20 20 19 18 17 17 17 17 16 15 14 13 13 13 13 12 10 9 9 8 8 7 6 6 5 5 5 5 5 5 5 6 7 8 10 14 18 20
15 14 14 14 13 11 8 7 9 10 10 10 11 12 11 12 13 11 8 8 11 11 11 12 14 13 11 11 13 13 12 13 13 13 14 16 17 18 19 19 19 19 19 19 19 19 19 20 20 20 19 18 17 17 17 17 17 16 15 14 13 12 12 12 11 11 10 9 8 8 7 6 6 5 6 6 6 6 7 7 7 8 9 11 14 18 20
13 13 13 13 13 11 9 9 12 13 12 14 16 15 14 13 13 10 8 6 8 11 12 11 13 15 13 12 13 14 15 16 16 16 17 18 17 16 17 18 17 16 16 18 19 20 21 21 21 21 19 17 16 16 15 15 16 16 15 14 13 12 12 11 11 10 10 9 8 8 7 7 7 7 7 7 6 6 7 8 8 9 10 12 14 16 18
12 13 13 11 10 10 9 9 11 12 12 16 18 17 15 13 11 10 9 8 7 10 12 12 13 15 16 15 17 19 20 20 20 20 20 20 19 19 19 19 17 14 14 16 18 19 20 21 21 20 19 17 16 15 15 14 13 13 13 12 12 12 11 10 10 10 9 9 8 9 8 8 8 8 7 7 7 7 7 8 8 9 10 11 13 14 16
13 13 11 10 9 8 8 8 8 10 13 17 18 16 13 11 9 9 10 9 8 9 12 13 14 15 16 17 19 19 20 21 22 22 21 21 21 20 21 21 20 19 18 18 18 18 19 19 19 18 16 16 16 15 14 13 12 12 11 11 11 12 11 10 9 9 9 9 9 9 9 8 8 8 8 7 7 8 8 8 8 9 10 10 11 13 17
14 11 9 9 9 10 9 8 8 10 13 16 16 14 11 10 9 9 9 9 9 9 10 11 13 16 18 19 18 17 18 20 21 20 20 21 22 21 22 22 22 21 20 19 18 18 17 17 17 16 16 15 15 14 14 13 12 12 11 11 10 10 11 12 11 10 10 10 10 10 9 9 8 8 8 8 7 7 8 8 7 8 9 9 10 12 16
11 9 6 8 9 10 10 10 10 11 14 16 16 15 12 9 9 10 10 10 9 10 10 11 14 18 20 19 19 19 18 16 15 14 16 20 21 22 23 23 23 23 22 20 20 20 18 16 15 15 16 16 15 14 14 13 12 11 10 10 9 9 10 11 11 11 10 10 9 9 9 9 9 8 8 9 9 8 8 8 7 7 7 8 9 11 14
11 9 7 8 8 9 11 11 11 12 15 16 16 14 12 10 10 11 12 11 10 11 14 15 17 21 22 20 18 18 16 15 15 16 18 20 21 22 22 23 22 22 22 22 22 21 20 19 17 16 16 17 16 15 14 12 11 10 10 9 9 9 9 10 11 11 10 9 8 8 8 8 8 8 7 8 9 8 8 8 7 7 7 8 9 10 12
9 9 9 9 10 12 12 11 12 13 15 16 15 14 13 13 12 12 13 13 14 17 19 19 18 19 19 18 16 16 17 18 19 20 19 19 19 21 22 22 20 19 19 21 22 21 20 20 20 19 17 17 17 16 15 12 10 9 9 9 8 8 9 9 9 10 10 9 9 8 8 7 7 7 7 8 8 8 8 7 7 7 7 8 9 10 11
10 10 10 11 12 13 12 11 11 12 13 15 15 15 15 14 14 15 17 18 18 19 20 19 17 15 16 17 19 20 21 22 21 20 19 18 19 21 23 22 20 19 17 16 19 20 20 20 20 19 17 16 16 17 17 15 11 9 9 10 10 10 10 10 10 10 10 10 10 9 9 8 7 7 8 8 8 8 8 8 7 7 6 7 8 9 9
16 14 13 13 14 13 14 16 18 18 17 16 15 16 17 17 17 17 18 19 20 21 21 21 20 18 18 20 21 21 22 21 20 20 20 19 20 23 24 22 20 19 16 15 17 19 19 19 19 18 17 17 16 16 18 17 14 11 11 12 12 11 11 11 12 12 11 11 11 11 11 11 10 10 9 9 9 8 8 8 7 7 6 6 7 8 9
18 17 17 17 16 15 16 19 22 23 22 19 15 16 19 21 21 21 20 20 20 21 21 22 22 21 20 19 18 18 19 20 19 19 20 20 21 23 24 23 22 21 18 18 20 20 19 18 18 18 17 16 15 15 16 16 14 12 13 13 13 13 13 12 12 12 12 12 12 12 12 12 12 12 11 11 11 10 10 9 9 8 8 8 8 9 9
16 17 18 18 18 17 16 16 18 23 27 25 20 19 21 23 24 23 21 19 21 22 22 21 20 19 18 17 16 17 18 20 20 19 20 20 21 21 20 21 23 23 21 20 21 21 21 19 18 17 17 16 14 14 15 15 14 14 14 14 14 14 14 13 13 12 12 13 12 12 13 13 13 13 13 13 13 13 12 12 12 12 11 10 10 10 9
16 18 19 18 17 16 16 17 20 24 28 27 25 24 26 26 25 22 19 19 23 25 24 21 19 17 17 18 19 19 20 22 23 22 20 19 19 17 14 16 20 22 21 20 20 21 21 21 19 17 16 16 16 15 15 15 15 16 16 16 16 16 15 14 14 13 13 13 13 13 13 13 13 14 14 14 15 15 14 13 13 14 14 13 11 10 10
16 18 18 16 15 15 17 20 21 22 24 25 25 26 27 26 24 22 21 22 24 24 22 21 21 19 18 18 18 19 20 21 21 22 21 21 19 16 13 15 19 22 21 20 21 21 20 21 21 19 17 16 16 17 17 16 17 18 18 18 18 17 16 16 15 14 14 14 14 14 14 14 14 14 14 15 15 16 16 15 15 15 14 14 12 11 12
18 17 15 14 14 16 19 20 20 19 20 23 24 25 26 24 23 21 21 22 21 19 19 20 21 21 19 18 16 16 16 17 17 19 20 22 23 21 18 17 19 21 21 20 21 21 20 20 21 21 20 18 17 18 19 18 18 19 19 19 19 18 18 18 17 16 15 15 15 15 15 14 14 14 14 15 16 17 17 17 17 17 16 14 14 15 16
20 18 16 15 15 17 19 21 20 17 16 18 22 25 25 23 22 20 20 20 19 19 19 19 19 19 19 18 17 15 15 15 16 16 16 16 19 22 20 18 18 20 21 21 20 20 20 21 21 22 23 22 21 20 20 19 19 19 19 19 19 19 19 18 18 17 17 17 16 16 16 16 15 15 16 16 16 17 18 18 18 19 19 19 19 21 22
19 19 18 18 18 18 17 18 17 14 14 18 22 23 21 20 19 19 19 18 18 18 18 18 18 17 17 16 16 16 16 16 17 16 14 12 13 15 17 18 17 17 18 19 20 20 21 23 24 24 24 23 22 21 20 20 19 19 19 18 18 18 18 18 18 18 18 18 18 18 18 18 18 18 17 17 17 17 18 18 18 19 21 22 24 26 27
18 19 19 19 18 17 16 16 15 15 17 19 19 18 18 18 18 18 18 18 17 17 18 19 19 18 17 16 15 14 15 16 16 17 15 13 13 14 16 17 18 18 18 19 19 19 20 23 26 26 24 23 22 21 21 20 20 19 18 18 18 18 18 18 17 17 17 17 18 18 18 19 19 20 19 19 18 18 17 18 19 20 21 21 23 25 27
16 17 17 17 16 15 15 16 17 18 17 15 12 12 15 16 16 16 17 17 17 17 18 19 19 19 18 18 16 14 12 12 13 14 14 13 12 13 14 15 16 18 19 20 21 21 23 24 25 25 24 23 22 21 21 21 20 20 19 19 18 18 18 18 17 17 17 17 17 17 17 18 19 19 20 20 20 19 19 19 19 20 21 21 21 21 22
16 16 16 17 17 16 17 17 17 16 15 13 11 12 14 15 16 16 16 16 17 18 18 18 18 18 18 18 18 17 15 12 10 11 13 12 12 12 13 14 15 15 16 18 20 22 24 25 25 24 22 21 21 21 20 20 20 20 20 20 19 18 18 18 17 17 17 17 17 17 17 17 18 18 19 20 20 21 21 21 21 20 20 21 21 21 21
16 16 16 17 17 16 16 15 14 13 12 13 13 12 12 13 15 16 15 15 15 16 16 17 17 17 17 17 16 17 16 14 12 11 12 12 12 12 13 14 15 15 14 14 16 18 21 23 23 22 20 19 19 18 19 19 19 19 18 19 19 19 19 18 18 17 17 17 18 18 17 17 17 17 18 18 19 20 21 22 23 24 23 22 22 23 24
15 15 15 15 15 15 15 13 12 12 13 13 13 13 13 13 14 14 14 14 14 14 14 15 16 15 15 15 15 14 14 14 13 12 12 12 13 13 13 14 15 16 15 13 13 14 17 18 19 18 17 17 16 16 17 17 17 17 17 16 16 17 17 17 18 18 18 17 17 18 18 18 18 18 18 18 18 18 19 20 22 25 27 27 26 26 28
14 14 13 13 14 15 15 15 14 13 13 13 13 13 13 13 13 14 15 15 14 13 13 14 14 14 14 13 12 12 12 12 12 12 12 12 12 12 13 13 13 14 14 14 13 13 14 15 16 16 15 14 14 15 15 15 15 15 15 15 15 15 15 15 16 16 17 17 17 17 17 17 17 17 17 17 17 17 18 18 19 21 24 25 26 28 30
15 14 13 13 13 14 15 15 15 15 14 14 13 13 12 12 12 14 15 15 14 13 12 11 12 13 13 12 11 11 11 11 11 12 12 12 12 12 12 12 12 13 13 13 13 13 13 13 14 15 14 13 13 13 13 13 13 13 14 14 14 14 14 14 14 14 14 15 15 15 15 15 15 15 16 16 16 16 16 17 17 18 19 21 22 25 27
Wind_Direction
266 278 282 284 289 269 246 226 216 211 211 213 216 223 225 219 225 236 214 209 222 224 213 204 205 214 222 230 250 279 313 302 268 203 190 194 191 183 185 196 204 211 214 208 202 201 200 201 200 200 201 200 199 201 200 197 197 196 193 192 195 196 197 197 197 196 197 200 202 203 204 204 206 208 210 210 211 212 212 213 214 215 215 214 212 210 211
267 258 253 256 260 252 245 241 231 221 219 220 221 224 228 229 234 239 234 228 227 227 230 236 238 241 247 257 274 282 277 266 247 243 227 211 198 190 193 196 203 216 221 210 200 198 198 202 202 201 201 200 199 200 200 198 198 196 193 192 193 195 197 197 194 193 195 198 199 200 201 202 204 206 208 209 210 211 211 213 214 214 214 214 213 211 210
255 243 240 241 245 244 241 237 233 231 231 230 229 229 228 231 235 237 238 241 237 228 233 245 250 250 252 257 262 267 276 285 285 274 258 248 251 248 216 208 214 224 229 217 201 197 198 200 201 201 201 200 200 200 200 199 199 196 194 193 192 195 197 194 190 190 193 196 197 198 200 201 203 205 206 208 209 209 210 211 212 213 213 214 215 214 212
237 224 225 231 239 248 249 239 229 227 229 230 232 232 231 231 233 235 237 240 241 234 234 242 245 244 245 249 252 257 268 276 277 275 265 256 262 261 210 211 232 237 237 226 209 203 202 200 201 201 200 198 199 201 200 199 198 196 195 195 194 195 194 189 188 190 193 194 195 197 199 200 202 203 205 207 208 208 209 210 211 212 213 214 215 215 214
234 202 207 229 242 247 245 235 226 225 226 229 232 232 233 233 234 236 237 239 242 240 238 240 236 234 239 247 252 255 260 265 269 270 263 259 269 274 221 200 227 240 242 235 222 215 209 206 206 203 198 197 200 201 199 198 196 196 198 198 196 193 191 188 189 192 193 194 196 198 199 199 201 202 204 206 208 208 209 210 211 213 214 215 215 215 216
240 211 221 245 236 234 239 230 223 225 224 226 229 231 231 230 232 240 247 250 247 240 238 239 235 236 245 254 257 256 255 255 259 263 265 269 279 286 275 240 242 244 244 246 239 231 222 216 213 206 201 201 201 198 196 196 196 197 199 199 197 194 192 192 193 194 194 195 198 199 199 199 200 203 205 207 208 210 211 211 212 213 215 216 216 216 217
255 263 256 232 225 229 260 106 204 227 229 229 232 236 235 232 232 236 241 245 245 243 242 241 242 248 256 259 258 256 256 255 253 259 266 271 278 285 285 271 262 251 250 253 248 241 232 222 216 210 205 203 199 195 193 194 195 197 197 198 197 195 194 195 196 196 197 198 199 199 199 199 201 205 208 209 210 211 213 213 214 215 216 217 218 218 218
256 258 233 224 229 359 330 214 183 211 222 224 233 235 233 233 234 235 238 243 244 243 242 243 249 257 259 258 256 255 258 259 255 258 262 266 270 275 281 276 270 270 270 268 260 252 241 225 216 213 207 200 196 194 192 193 194 194 194 195 196 195 195 197 199 199 200 200 200 200 199 200 203 207 209 210 210 210 213 215 216 217 217 218 219 219 219
241 242 240 241 272 302 249 212 128 91 174 162 255 242 234 233 236 236 237 242 246 246 245 247 251 255 258 258 253 248 246 241 242 251 258 265 270 271 285 291 285 281 277 272 266 256 242 229 219 213 204 198 195 193 192 192 193 192 192 194 196 196 197 199 200 201 201 201 200 200 200 201 205 208 209 210 209 209 211 214 216 217 218 220 220 220 220
234 244 249 241 250 256 227 171 101 72 54 46 38 257 252 244 245 246 241 242 246 246 246 247 248 248 249 251 255 253 240 227 223 229 231 234 246 261 286 291 286 284 279 270 263 251 237 228 217 208 201 196 194 194 193 194 194 193 196 198 198 199 199 200 200 199 199 200 199 200 201 204 207 209 210 211 209 209 211 214 218 220 220 221 221 221 222
229 237 241 233 238 241 166 123 104 78 51 61 149 231 235 223 14 348 304 271 257 251 252 247 237 231 236 245 255 254 234 215 208 205 195 195 213 238 285 290 290 294 292 279 260 238 224 219 211 204 199 194 193 194 193 194 195 197 200 201 200 200 199 197 197 198 198 200 200 201 204 208 211 213 213 213 212 212 214 217 221 222 222 224 224 223 224
228 232 237 239 245 240 170 114 95 45 10 46 213 231 216 72 26 4 345 319 298 290 292 272 236 221 234 253 265 240 194 172 167 172 166 163 170 198 262 281 291 296 304 295 251 212 202 203 199 197 194 191 193 193 191 195 199 201 203 201 197 197 195 194 196 198 199 200 202 205 208 210 213 214 213 214 215 215 217 220 223 224 224 225 227 226 226
227 231 238 244 243 243 246 241 137 13 316 250 220 222 114 37 357 350 345 323 313 314 312 295 257 239 247 258 359 113 136 141 139 137 134 132 133 298 312 310 293 282 348 46 82 103 121 160 181 190 189 188 192 191 189 194 200 200 199 195 190 190 191 193 196 198 199 202 203 206 208 209 211 214 214 216 216 216 219 221 222 223 223 224 227 227 226
225 226 235 244 245 234 243 253 257 256 254 241 208 169 360 326 326 339 331 316 322 323 310 298 288 285 282 263 125 122 130 134 131 129 129 132 136 136 112 302 255 201 89 82 78 68 73 119 160 178 180 180 185 184 184 192 198 195 191 187 184 184 187 192 197 198 200 203 203 206 209 209 211 213 213 215 215 216 219 220 222 226 227 228 231 231 229
224 231 229 235 246 218 211 234 246 229 226 276 351 343 326 325 333 340 327 322 334 323 310 303 290 286 292 313 116 120 120 121 121 123 127 130 134 135 128 128 145 132 96 79 71 60 58 84 126 155 164 166 169 164 155 161 169 169 171 174 177 183 188 193 198 201 204 205 205 208 211 211 211 213 213 214 215 216 219 222 227 233 235 235 238 240 239
215 222 217 221 310 314 218 224 237 236 237 2 349 325 322 326 331 337 335 332 332 317 309 306 292 274 263 214 114 113 118 122 123 127 135 143 147 133 114 111 120 122 109 92 82 71 64 71 92 119 132 130 123 115 107 108 127 145 157 163 169 178 187 193 199 204 208 209 209 211 211 210 210 213 213 214 216 218 220 224 230 236 238 238 241 244 246
257 258 262 295 323 313 295 271 258 258 273 7 307 295 302 307 319 332 325 318 321 315 305 297 284 264 243 207 157 138 133 130 133 143 150 151 146 130 117 113 115 115 109 100 95 89 79 72 76 87 99 102 97 92 94 104 122 142 158 168 174 181 187 190 195 200 204 207 209 210 209 208 209 213 215 217 221 225 227 229 233 237 240 241 242 245 247
292 287 278 277 280 287 299 301 294 291 297 294 273 275 281 292 311 316 310 309 312 309 302 292 278 260 244 216 168 140 136 138 143 149 151 149 145 137 127 119 116 113 109 103 97 93 87 81 79 80 85 91 94 94 99 110 122 135 148 161 170 179 185 187 191 195 198 202 205 207 208 209 212 218 222 224 227 230 232 233 236 239 242 244 245 247 248
284 276 266 270 279 293 307 309 305 300 291 287 292 284 276 292 304 300 299 303 300 295 291 282 272 260 243 219 176 139 139 150 152 151 151 148 141 133 127 124 121 116 108 101 96 92 88 85 85 86 87 90 94 98 101 106 117 128 138 145 149 157 167 172 177 186 191 196 200 202 205 212 218 225 229 231 233 234 236 238 240 241 242 244 248 250 252
260 265 274 282 290 298 300 297 296 292 284 282 287 282 274 277 284 289 295 300 299 296 288 273 262 247 232 217 182 154 153 155 152 150 148 143 138 135 133 129 121 109 102 99 96 92 90 88 87 89 90 91 96 101 103 106 111 115 123 131 133 137 143 144 151 163 169 174 185 193 201 211 219 225 230 233 235 235 237 240 243 246 247 247 249 252 254
260 263 268 272 279 282 279 277 279 281 284 286 279 268 264 259 252 258 269 293 330 303 267 253 237 217 209 196 169 157 157 150 145 145 140 135 136 132 123 115 109 105 103 101 97 94 94 94 92 91 90 91 96 101 104 110 115 115 116 119 118 119 121 119 123 133 139 144 161 178 189 200 219 246 257 257 255 251 248 247 251 261 268 269 266 266 267
256 257 257 259 262 264 266 282 294 292 288 284 271 256 249 243 231 225 216 166 104 86 76 232 210 189 178 174 161 150 145 141 136 132 127 124 123 120 117 113 110 107 105 103 100 98 97 96 95 93 91 90 92 97 104 111 116 116 116 114 110 105 101 99 102 109 112 114 123 133 138 145 154 235 272 269 270 272 270 268 267 268 274 277 276 277 281
259 261 263 265 269 268 276 303 314 308 293 273 258 247 234 214 190 175 170 147 116 84 46 11 192 164 156 162 154 135 125 127 123 118 118 117 115 115 115 112 109 107 105 102 100 98 97 97 96 94 92 91 90 93 98 106 113 113 108 101 95 89 84 82 84 89 93 93 96 98 96 97 103 105 107 105 6 317 297 288 279 273 274 278 281 287 291
264 264 266 270 276 278 283 295 304 304 289 265 243 228 217 195 159 135 126 120 114 102 76 51 48 101 128 138 133 121 115 113 108 104 104 104 106 109 110 110 109 108 106 102 100 97 94 94 94 92 91 91 91 93 95 99 105 105 99 94 90 87 85 83 80 82 85 84 85 87 84 78 77 78 78 76 67 42 17 15 18 10 344 321 312 310 307
262 260 263 269 273 274 278 288 292 285 272 255 229 204 200 176 139 128 125 114 106 110 106 89 71 75 95 110 117 117 112 108 107 105 100 96 97 100 105 108 108 107 104 101 99 97 93 91 90 89 88 86 86 88 91 93 96 96 93 91 90 89 90 90 86 82 82 82 81 84 82 77 73 66 51 38 32 15 2 9 23 29 26 14 359 348 338
259 258 257 262 266 267 269 279 281 264 244 228 199 179 174 143 120 116 117 116 112 111 109 102 93 87 87 96 110 113 112 113 117 115 110 107 105 103 104 105 102 101 101 99 97 96 93 91 89 87 86 86 86 87 88 91 93 93 93 92 90 87 90 95 94 88 83 81 79 77 72 62 55 55 49 30 15 6 357 356 3 6 1 359 7 11 4
256 253 251 253 256 255 251 254 257 241 218 200 174 156 144 123 110 106 105 108 107 99 96 101 104 103 100 100 105 107 107 109 111 108 103 103 104 104 104 102 99 96 94 92 91 90 90 89 87 83 81 82 84 85 86 87 87 87 88 89 88 84 83 87 90 85 76 70 64 57 50 41 31 27 29 22 10 4 4 358 349 341 337 341 354 359 356
254 246 241 238 239 245 250 246 237 221 203 182 154 135 124 111 102 100 103 107 103 94 93 103 109 111 111 109 108 104 97 94 94 93 93 95 98 100 100 98 96 95 91 89 87 86 86 86 83 79 75 75 76 77 78 78 78 76 76 78 80 80 78 77 77 75 69 63 58 50 40 28 17 11 14 16 9 5 9 5 349 336 330 332 339 341 339
242 235 232 230 232 247 259 238 213 201 185 153 121 105 102 100 96 91 95 107 110 105 99 99 102 103 102 102 103 101 96 90 84 81 83 86 92 97 97 94 90 88 86 85 84 82 82 81 78 76 74 73 74 74 73 73 72 70 68 68 71 74 74 74 75 75 71 64 60 58 55 43 28 20 22 21 14 11 15 9 351 342 341 341 341 338 333
223 220 221 220 224 232 227 196 182 179 158 124 101 88 82 82 83 79 74 80 97 101 96 92 95 95 93 92 95 94 92 89 86 83 81 80 79 84 89 89 86 81 78 77 77 77 77 74 71 70 70 70 72 73 73 74 74 72 71 70 73 77 79 79 78 77 74 69 63 62 63 54 41 31 25 21 18 16 15 8 355 348 349 350 348 343 336
194 193 198 196 197 206 201 182 171 162 134 109 99 93 85 78 73 69 63 52 57 79 86 84 85 87 87 87 88 87 84 84 84 84 84 81 78 77 80 81 80 76 71 68 68 70 71 69 67 65 64 65 68 71 72 75 77 77 75 75 76 77 76 77 79 78 73 69 65 60 58 53 44 35 25 17 14 11 9 6 359 353 351 350 351 349 346
156 156 164 160 161 179 185 175 167 151 120 104 100 97 93 90 86 76 65 49 39 55 73 78 81 84 84 82 81 79 77 78 78 77 77 77 76 76 77 77 75 71 67 64 62 64 66 68 68 65 63 65 69 70 72 74 74 74 74 73 71 67 60 59 69 73 69 65 61 57 54 49 42 36 29 19 9 4 5 7 359 354 355 354 354 358 359
138 134 149 157 162 170 168 159 153 135 113 104 102 99 95 97 93 84 77 69 55 50 58 68 74 78 80 80 77 72 70 73 74 73 71 72 72 73 74 74 71 68 64 61 60 60 60 63 66 66 63 64 65 65 67 70 69 68 67 66 64 62 57 52 55 62 63 60 57 54 54 50 42 36 32 24 13 6 9 11 3 356 358 357 355 1 6
109 114 152 177 172 162 152 145 139 124 111 106 105 102 99 97 91 84 80 75 64 53 51 60 70 76 78 77 76 72 69 69 70 68 66 67 69 71 72 72 70 66 62 59 56 54 51 51 57 62 60 58 58 57 57 61 62 62 61 59 57 55 53 51 50 53 55 56 54 53 53 51 45 38 33 27 21 16 16 18 13 3 359 356 355 3 12
89 108 145 160 149 138 135 133 129 120 111 107 104 101 97 93 88 85 81 74 67 63 59 60 68 75 77 77 75 72 69 69 70 67 63 63 65 68 69 70 67 64 60 55 52 51 47 45 48 54 54 51 50 47 44 48 55 57 56 57 57 53 51 52 51 50 49 50 50 49 48 50 50 45 36 28 25 22 20 21 18 8 1 360 358 360 10
105 115 123 121 112 109 112 115 114 109 104 101 97 95 91 84 79 80 80 75 71 69 67 63 63 66 69 71 73 71 69 70 69 65 59 56 59 62 64 63 61 59 57 52 45 43 42 41 43 49 53 51 47 43 38 39 49 53 52 55 58 57 55 53 52 51 46 41 39 38 39 46 53 49 39 31 28 25 22 19 16 12 10 8 2 359 5
84 91 95 91 85 84 85 86 87 87 85 83 80 81 82 78 72 74 77 75 69 67 67 65 62 60 61 65 68 69 68 67 67 63 57 51 52 56 58 56 52 51 51 44 35 33 34 36 40 47 52 52 49 44 41 40 44 50 54 56 56 56 54 50 46 44 40 33 29 26 23 26 32 35 34 32 28 23 18 13 9 12 19 20 13 7 8
49 60 74 77 75 73 70 69 71 73 75 75 70 67 69 71 69 69 71 70 68 69 69 65 62 61 62 62 63 63 62 61 61 61 59 55 54 56 56 53 48 46 42 34 30 30 30 33 39 46 50 50 49 44 40 40 44 51 57 59 57 55 54 51 46 42 37 33 30 30 26 22 22 23 25 25 21 17 13 7 0 0 9 21 28 24 19
45 51 59 64 67 67 64 63 65 68 71 73 71 66 66 67 68 68 64 58 58 64 67 66 64 63 61 58 57 54 53 52 53 56 58 57 58 59 57 51 46 43 40 38 36 32 29 33 42 46 45 45 47 46 41 42 47 54 58 59 58 56 54 52 49 46 42 36 34 34 34 31 28 26 25 23 18 14 10 3 356 352 359 16 32 33 24
48 51 53 55 58 60 60 61 63 64 64 66 68 68 68 68 68 67 60 51 51 56 60 64 67 64 59 57 56 51 49 49 51 54 57 59 59 59 56 48 41 39 39 40 40 35 33 36 43 46 44 43 45 47 46 47 51 55 56 55 55 55 53 50 47 46 43 40 35 34 34 34 32 30 29 27 23 18 12 6 2 0 5 19 37 46 39
46 49 52 52 51 52 56 61 62 61 60 60 62 65 67 68 67 65 59 55 58 59 57 59 64 65 65 67 67 61 57 56 54 52 53 56 57 58 56 45 38 36 38 41 42 41 40 40 41 43 45 45 45 48 51 54 56 57 56 54 53 52 51 49 47 45 43 42 40 37 36 36 35 34 34 32 29 23 19 16 15 14 14 16 27 43 47
48 49 51 52 51 51 55 60 61 60 58 56 56 61 65 66 65 63 62 61 60 58 53 52 55 58 63 68 69 67 64 63 60 56 55 54 54 56 58 49 40 38 41 45 46 46 46 44 41 40 43 47 50 53 57 59 60 59 58 56 54 53 51 48 48 47 45 44 44 41 39 37 37 37 37 38 36 31 27 26 25 25 23 22 24 33 40
50 51 51 53 52 52 56 59 60 61 59 56 55 58 61 59 56 57 58 57 54 51 50 50 50 50 50 52 55 57 56 57 59 61 60 57 54 54 54 51 45 42 44 48 50 49 47 45 41 39 41 47 52 57 60 61 60 59 58 57 55 54 53 50 48 48 46 44 43 41 38 36 36 36 36 38 39 37 34 34 33 31 33 36 39 42 44
53 54 55 55 52 53 58 60 59 58 57 57 57 56 55 51 49 51 56 55 51 49 49 48 47 48 48 48 49 47 42 41 46 53 57 57 54 51 48 49 49 48 48 51 53 51 46 41 39 40 43 47 51 55 58 59 59 58 58 57 56 55 54 52 50 48 46 44 43 43 42 39 39 38 37 38 41 40 39 38 37 36 39 43 45 45 46
55 57 59 58 55 53 55 59 59 57 58 60 59 55 52 51 51 52 54 56 53 50 48 47 45 44 46 50 55 55 51 46 46 47 51 56 54 47 45 47 49 50 52 56 57 54 48 45 46 46 45 45 49 53 54 55 56 56 56 56 55 54 54 52 50 48 47 45 45 46 45 43 43 42 40 40 42 43 41 40 38 36 38 43 46 48 50
54 55 58 60 59 56 57 61 64 63 63 64 61 55 52 55 56 54 54 55 55 53 52 51 47 43 42 45 52 58 59 57 53 49 52 59 62 56 53 54 53 53 55 58 56 51 47 48 50 50 46 44 48 52 52 52 52 53 52 53 53 52 51 51 49 48 47 45 45 45 45 44 45 44 42 41 42 42 40 40 40 38 38 40 44 46 49
50 52 54 56 59 61 61 62 62 60 59 61 60 55 53 56 58 57 57 58 58 56 54 52 50 46 44 43 43 43 47 55 56 50 48 55 62 60 56 55 56 58 60 60 57 54 53 52 51 49 47 48 51 53 52 52 51 51 50 50 50 49 49 49 49 47 47 46 45 45 46 47 47 46 44 43 42 40 38 37 39 39 39 39 40 41 43
47 49 50 52 54 55 55 55 55 55 55 57 59 58 56 57 58 57 56 56 57 56 54 51 48 45 44 45 44 40 37 42 49 44 38 42 52 54 51 48 49 54 61 62 58 56 57 57 53 48 47 50 53 54 54 53 52 51 50 49 48 47 47 47 47 47 47 45 45 46 47 48 48 47 46 45 43 41 40 40 39 38 39 39 41 42 44
48 50 49 48 47 47 48 49 49 48 47 48 51 52 53 56 56 53 50 51 55 55 52 49 47 43 41 42 43 41 39 41 44 41 37 39 45 48 46 44 43 44 51 58 56 51 51 52 51 46 45 49 52 53 54 54 53 52 53 52 51 50 48 46 46 47 47 47 47 47 47 47 47 47 48 49 47 45 43 44 45 47 48 47 44 44 46
43 47 48 47 45 46 47 48 48 46 45 45 45 46 49 53 52 46 42 44 49 51 50 47 45 42 41 40 40 38 37 38 41 41 41 42 44 45 45 45 43 41 44 50 53 49 46 45 44 43 45 49 51 51 52 54 54 53 52 52 52 51 50 48 47 47 47 47 48 48 48 48 48 48 48 49 49 48 46 45 46 50 53 53 51 50 51
37 42 47 49 50 51 51 51 50 49 49 49 49 48 51 55 55 49 43 40 42 44 45 44 40 36 35 36 37 36 34 34 37 39 40 41 43 45 45 45 44 43 43 45 47 48 46 44 42 41 44 49 51 51 51 54 56 55 54 53 52 50 48 48 48 48 47 46 46 47 46 46 47 48 50 50 49 49 49 47 45 46 48 49 50 52 54
43 41 44 50 54 54 53 52 51 50 49 50 50 49 50 56 58 54 46 41 40 40 40 41 39 35 30 27 28 31 33 35 37 39 39 39 40 42 43 42 42 41 42 44 45 46 46 46 45 43 43 46 50 52 52 53 55 56 54 54 54 52 50 48 47 47 47 47 46 46 45 44 43 44 47 48 48 48 50 49 49 48 47 46 47 48 48